Погода в Екатериновке

Россия / Самарская область     53°05′15″N   49°27′07″E
темп.,
°C
ветер,
м/с
пор.,
м/с
влажн.,
%
обл.,
%
осадки,
мм/ч
давл.,
гПа
погр.,
м
19 сентября, вс
вс1901:00+4ссз347169 0.0 102464
04:00+3сз227637 0.0 102418
07:00+3ссз227699 0.0 102531
10:00+9с334923 0.0 10251042
13:00+12ссз33369 0.0 10251432
16:00+12с4337100 0.0 10241296
19:00+8ссв3350100 0.0 102434
22:00+7св224984 0.0 102428
20 сентября, пн
пн2001:00+5в335568 0.0 102531
04:00+4в3461100 0.0 102564
07:00+4в3664100 0.0 1025116
10:00+10в5642100 0.0 1025569
13:00+13в5533100 0.0 10241124
16:00+13всв6735100 0.0 10231158
19:00+11всв61042100 0.0 1023477
22:00+11в61141100 0.0 1022487
21 сентября, вт
вт2101:00+11в71338100 0.0 1022550
04:00+9вюв61151100 0.1 1022591
07:00+8в71363100 0.2 1021547
10:00+8в71462100 0.8 1020518
13:00+11вюв6124485 0.0 1019644
16:00+12вюв61050100 0.1 1018687
19:00+12в71353100 0.0 1016442
22:00+13в6124299 0.0 1015388
22 сентября, ср
ср2201:00+11вюв51179100 0.2 1015337
04:00+11в61078100 2.3 1014333
07:00+11вюв61271100 0.1 1014406
10:00+11юв61281100 1.1 1013526
13:00+10вюв61676100 6.1 1013481
16:00+12юв51378100 6.6 1014531
19:00+12юв3477100 0.1 101592
22:00+12вюв237168 0.1 101544
23 сентября, чт
чт2301:00+11вюв3666100 0.0 1015136
04:00+10в3460100 0.0 101542
07:00+11вюв384881 0.0 1015146
10:00+14юв4837100 0.0 1015318
13:00+18ю5730100 0.0 1015966
16:00+11юв3893100 3.3 1016354
19:00+10вюв61287100 1.6 1016591
22:00+10вюв51180100 1.8 1015432